Flag Weather past 2 weeks in Tempe, Arizona, U.S.A.

Now
73 °F

Scattered clouds.


Feels Like: 73 °F
Forecast: 48 / 72 °F
Wind: 15 mph from Northwest

Location: Phoenix Sky Harbor International Airport

Current Time: Nov 23, 2014 at 3:29:07 PM

Latest Report: Nov 23, 2014 at 2:51 PM


Visibility: 10 mi

Pressure: 29.96 "Hg

Humidity: 9%

Dew point: 11 °F

Location of TempeLocation

Historic Weather in Tempe — Graph

°F

Tempe temperature yesterday

Maximum temperature yesterday: 72 °F (at 2:51 PM)
Minimum temperature yesterday: 48 °F (at 5:51 AM)
Average temperature yesterday: 59 °F

Past Weeks' High & Low Weather Summary

 TemperatureHumidityPressure
High90 °F (Nov 8, 2:51 PM)78% (Nov 15, 6:51 AM)30.23 "Hg (Nov 15, 6:51 AM)
Low48 °F (Nov 17, 2:51 AM)6% (Nov 16, 3:51 PM)29.69 "Hg (Nov 10, 2:51 PM)
Average65 °F34%29.94 "Hg
* Reported Nov 8 1:51 PM — Nov 23 1:51 PM, Tempe, Weather by CustomWeather, © 2014

Note: Actual official high and low records may vary slightly from our data, if they occured in-between our weather recording intervals... More about our weather records

Advertising

Tempe weather history for previous 24 hours

 ConditionsComfort  
Time TempWeatherWind HumidityBarometerVisibility
1:51 PM
Nov 23
73 °FScattered clouds.15 mph9%29.97 "Hg10 mi
1:04 PM72 °FPassing clouds.12 mph13%30.01 "Hg10 mi
12:51 PM72 °FPassing clouds.17 mph17%29.98 "Hg10 mi
11:51 AM67 °FScattered clouds.14 mph25%30.01 "Hg9 mi
10:51 AM62 °FScattered clouds.8 mph32%30.04 "Hg10 mi
9:51 AM57 °FPartly sunny.No wind41%30.04 "Hg10 mi
8:51 AM53 °FPartly sunny.6 mph45%30.03 "Hg10 mi
7:51 AM50 °FPartly sunny.5 mph52%29.99 "Hg10 mi
6:51 AM48 °FPassing clouds.5 mph56%29.96 "Hg10 mi
5:51 AM50 °FPassing clouds.8 mph50%29.93 "Hg10 mi
4:51 AM50 °FClear.5 mph54%29.91 "Hg10 mi
3:51 AM50 °FClear.5 mph52%29.90 "Hg10 mi
2:51 AM52 °FClear.No wind50%29.89 "Hg10 mi
1:51 AM52 °FClear.7 mph53%29.90 "Hg10 mi
12:51 AM54 °FClear.6 mph49%29.90 "Hg10 mi
11:51 PM
Nov 22
55 °FClear.8 mph45%29.90 "Hg10 mi
10:51 PM57 °FClear.7 mph44%29.90 "Hg10 mi
9:51 PM58 °FClear.8 mph41%29.91 "Hg10 mi
8:51 PM61 °FClear.5 mph38%29.91 "Hg10 mi
7:51 PM61 °FClear.3 mph36%29.91 "Hg10 mi
6:51 PM65 °FPassing clouds.3 mph31%29.91 "Hg10 mi
5:51 PM68 °FClear.No wind25%29.92 "Hg10 mi
4:51 PM71 °FScattered clouds.6 mph22%29.93 "Hg10 mi
3:51 PM71 °FScattered clouds.3 mph22%29.93 "Hg10 mi
Weather by CustomWeather, © 2014

See weather overviewHow to use our weather pages